Location: Shenandoah County Park
(38.9356°N, 78.4524°W)
Time: 05:58:23
(UTC-04:00)

Transit 2A - Pass Details

Date: 18 June 2024
Orbit: 591 x 960 km, 66.7° (Epoch: 23 July)

Event Time Altitude Azimuth Distance (km) Brightness Sun altitude
Rises 02:15:47 0° 332° (NNW) 3,539 10.1 -26.0°
Reaches altitude 10° 02:18:16 10° 333° (NNW) 2,631 9.3 -25.9°
Maximum altitude 02:24:30 81° 61° (ENE) 970 6.4 -25.6°
Enters shadow 02:26:43 44° 142° (SE) 1,308 6.9 -25.4°
